contact:dominique.lefevre@mio.osupytheas.fr, maurice.libes@osupytheas.fr, didier.mallarino@osupytheas.fr
Project:EMSO http://www.emso-fr.org/EMSO-France
Depth: 2436.0 m
Title:EMSO Ligure Ouest : Data MII capteur MICROCAT
DateTime_Computer,Latitude,Longitude,Temperature,Conductivity,Pressure,DateTime_Instrument
DateTime_Computer,Latitude,Longitude,degC,S m-1,dbar,DateTime_Instrument
2020-11-22T00:01:16Z,42.805,6.029,13.2976,4.59980,2470.287,2020-11-22T02:02:13Z
2020-11-22T00:04:19Z,42.805,6.029,13.2972,4.59978,2470.25,2020-11-22T02:05:16Z
2020-11-22T00:07:22Z,42.805,6.029,13.2972,4.59980,2470.25,2020-11-22T02:08:19Z
2020-11-22T00:10:25Z,42.805,6.029,13.2976,4.59978,2470.273,2020-11-22T02:11:22Z
2020-11-22T00:13:28Z,42.805,6.029,13.2973,4.59977,2470.273,2020-11-22T02:14:25Z
2020-11-22T00:16:31Z,42.805,6.029,13.2971,4.59978,2470.287,2020-11-22T02:17:28Z
2020-11-22T00:19:35Z,42.805,6.029,13.2976,4.59978,2470.297,2020-11-22T02:20:32Z
2020-11-22T00:22:38Z,42.805,6.029,13.2975,4.59978,2470.273,2020-11-22T02:23:35Z
2020-11-22T00:25:41Z,42.805,6.029,13.2973,4.59978,2470.273,2020-11-22T02:26:38Z
2020-11-22T00:28:44Z,42.805,6.029,13.2973,4.59979,2470.264,2020-11-22T02:29:41Z
2020-11-22T00:31:47Z,42.805,6.029,13.2971,4.59977,2470.25,2020-11-22T02:32:44Z
2020-11-22T00:34:50Z,42.805,6.029,13.2975,4.59977,2470.25,2020-11-22T02:35:47Z
2020-11-22T00:37:53Z,42.805,6.029,13.2971,4.59978,2470.273,2020-11-22T02:38:50Z
2020-11-22T00:40:56Z,42.805,6.029,13.2976,4.59978,2470.273,2020-11-22T02:41:53Z
2020-11-22T00:43:59Z,42.805,6.029,13.2972,4.59976,2470.25,2020-11-22T02:44:57Z
2020-11-22T00:47:03Z,42.805,6.029,13.2973,4.59978,2470.273,2020-11-22T02:48:00Z
2020-11-22T00:50:06Z,42.805,6.029,13.2974,4.59979,2470.273,2020-11-22T02:51:03Z
2020-11-22T00:53:09Z,42.805,6.029,13.2974,4.59977,2470.287,2020-11-22T02:54:06Z
2020-11-22T00:56:12Z,42.805,6.029,13.2974,4.59978,2470.273,2020-11-22T02:57:09Z
2020-11-22T00:59:15Z,42.805,6.029,13.2970,4.59978,2470.273,2020-11-22T03:00:12Z
2020-11-22T01:02:18Z,42.805,6.029,13.2977,4.59978,2470.287,2020-11-22T03:03:15Z
2020-11-22T01:05:21Z,42.805,6.029,13.2971,4.59979,2470.297,2020-11-22T03:06:18Z
2020-11-22T01:08:24Z,42.805,6.029,13.2974,4.59978,2470.264,2020-11-22T03:09:22Z
2020-11-22T01:11:28Z,42.805,6.029,13.2971,4.59977,2470.227,2020-11-22T03:12:25Z
2020-11-22T01:14:31Z,42.805,6.029,13.2976,4.59977,2470.264,2020-11-22T03:15:28Z
2020-11-22T01:17:34Z,42.805,6.029,13.2974,4.59976,2470.264,2020-11-22T03:18:31Z
2020-11-22T01:20:37Z,42.805,6.029,13.2971,4.59978,2470.273,2020-11-22T03:21:34Z
2020-11-22T01:23:40Z,42.805,6.029,13.2974,4.59978,2470.264,2020-11-22T03:24:37Z
2020-11-22T01:26:43Z,42.805,6.029,13.2971,4.59977,2470.264,2020-11-22T03:27:40Z
2020-11-22T01:29:46Z,42.805,6.029,13.2974,4.59978,2470.227,2020-11-22T03:30:43Z
2020-11-22T01:32:49Z,42.805,6.029,13.2971,4.59978,2470.25,2020-11-22T03:33:47Z
2020-11-22T01:35:53Z,42.805,6.029,13.2974,4.59978,2470.264,2020-11-22T03:36:50Z
2020-11-22T01:38:56Z,42.805,6.029,13.2972,4.59978,2470.227,2020-11-22T03:39:53Z
2020-11-22T01:41:59Z,42.805,6.029,13.2974,4.59982,2470.287,2020-11-22T03:42:56Z
2020-11-22T01:45:02Z,42.805,6.029,13.2974,4.59977,2470.25,2020-11-22T03:45:59Z
2020-11-22T01:48:05Z,42.805,6.029,13.2974,4.59978,2470.264,2020-11-22T03:49:02Z
2020-11-22T01:51:08Z,42.805,6.029,13.2975,4.59976,2470.25,2020-11-22T03:52:05Z
2020-11-22T01:54:11Z,42.805,6.029,13.2975,4.59978,2470.25,2020-11-22T03:55:08Z
2020-11-22T01:57:14Z,42.805,6.029,13.2976,4.59978,2470.273,2020-11-22T03:58:11Z
2020-11-22T02:00:18Z,42.805,6.029,13.2976,4.59978,2470.273,2020-11-22T04:01:15Z
2020-11-22T02:03:21Z,42.805,6.029,13.2973,4.59977,2470.25,2020-11-22T04:04:18Z
2020-11-22T02:06:24Z,42.805,6.029,13.2973,4.59978,2470.25,2020-11-22T04:07:21Z
2020-11-22T02:09:27Z,42.805,6.029,13.2973,4.59978,2470.25,2020-11-22T04:10:24Z
2020-11-22T02:12:30Z,42.805,6.029,13.2973,4.59976,2470.273,2020-11-22T04:13:27Z
2020-11-22T02:15:33Z,42.805,6.029,13.2973,4.59978,2470.264,2020-11-22T04:16:30Z
2020-11-22T02:18:36Z,42.805,6.029,13.2970,4.59979,2470.25,2020-11-22T04:19:33Z
2020-11-22T02:21:39Z,42.805,6.029,13.2974,4.59976,2470.227,2020-11-22T04:22:36Z
2020-11-22T02:24:43Z,42.805,6.029,13.2974,4.59978,2470.25,2020-11-22T04:25:40Z
2020-11-22T02:27:46Z,42.805,6.029,13.2976,4.59976,2470.24,2020-11-22T04:28:43Z
2020-11-22T02:30:49Z,42.805,6.029,13.2974,4.59980,2470.227,2020-11-22T04:31:46Z
2020-11-22T02:33:52Z,42.805,6.029,13.2974,4.59977,2470.24,2020-11-22T04:34:49Z
2020-11-22T02:36:55Z,42.805,6.029,13.2973,4.59978,2470.25,2020-11-22T04:37:52Z
2020-11-22T02:39:58Z,42.805,6.029,13.2974,4.59978,2470.25,2020-11-22T04:40:55Z
2020-11-22T02:43:01Z,42.805,6.029,13.2976,4.59977,2470.24,2020-11-22T04:43:58Z
2020-11-22T02:46:04Z,42.805,6.029,13.2974,4.59979,2470.227,2020-11-22T04:47:01Z
2020-11-22T02:49:08Z,42.805,6.029,13.2975,4.59979,2470.25,2020-11-22T04:50:05Z
2020-11-22T02:52:11Z,42.805,6.029,13.2975,4.59977,2470.25,2020-11-22T04:53:08Z
2020-11-22T02:55:14Z,42.805,6.029,13.2976,4.59977,2470.227,2020-11-22T04:56:11Z
2020-11-22T02:58:17Z,42.805,6.029,13.2975,4.59978,2470.24,2020-11-22T04:59:14Z
2020-11-22T03:01:20Z,42.805,6.029,13.2969,4.59978,2470.227,2020-11-22T05:02:17Z
2020-11-22T03:04:23Z,42.805,6.029,13.2975,4.59978,2470.213,2020-11-22T05:05:20Z
2020-11-22T03:07:26Z,42.805,6.029,13.2976,4.59977,2470.25,2020-11-22T05:08:23Z
2020-11-22T03:10:29Z,42.805,6.029,13.2971,4.59978,2470.25,2020-11-22T05:11:26Z
2020-11-22T03:13:32Z,42.805,6.029,13.2969,4.59978,2470.25,2020-11-22T05:14:30Z
2020-11-22T03:16:36Z,42.805,6.029,13.2971,4.59976,2470.25,2020-11-22T05:17:33Z
2020-11-22T03:19:39Z,42.805,6.029,13.2974,4.59977,2470.25,2020-11-22T05:20:36Z
2020-11-22T03:22:42Z,42.805,6.029,13.2974,4.59981,2470.227,2020-11-22T05:23:39Z
2020-11-22T03:25:45Z,42.805,6.029,13.2971,4.59976,2470.25,2020-11-22T05:26:42Z
2020-11-22T03:28:48Z,42.805,6.029,13.2977,4.59976,2470.24,2020-11-22T05:29:45Z
2020-11-22T03:31:51Z,42.805,6.029,13.2974,4.59979,2470.203,2020-11-22T05:32:48Z
2020-11-22T03:34:54Z,42.805,6.029,13.2974,4.59978,2470.24,2020-11-22T05:35:51Z
2020-11-22T03:37:57Z,42.805,6.029,13.2975,4.59978,2470.273,2020-11-22T05:38:54Z
2020-11-22T03:41:01Z,42.805,6.029,13.2972,4.59976,2470.25,2020-11-22T05:41:58Z
2020-11-22T03:44:04Z,42.805,6.029,13.2971,4.59976,2470.25,2020-11-22T05:45:01Z
2020-11-22T03:47:07Z,42.805,6.029,13.2972,4.59978,2470.24,2020-11-22T05:48:04Z
2020-11-22T03:50:10Z,42.805,6.029,13.2971,4.59976,2470.24,2020-11-22T05:51:07Z
2020-11-22T03:53:13Z,42.805,6.029,13.2973,4.59976,2470.25,2020-11-22T05:54:10Z
2020-11-22T03:56:16Z,42.805,6.029,13.2972,4.59976,2470.25,2020-11-22T05:57:13Z
2020-11-22T03:59:19Z,42.805,6.029,13.2978,4.59978,2470.227,2020-11-22T06:00:16Z
2020-11-22T04:02:22Z,42.805,6.029,13.2972,4.59977,2470.227,2020-11-22T06:03:19Z
2020-11-22T04:05:26Z,42.805,6.029,13.2972,4.59977,2470.24,2020-11-22T06:06:23Z
2020-11-22T04:08:29Z,42.805,6.029,13.2975,4.59976,2470.24,2020-11-22T06:09:26Z
2020-11-22T04:11:32Z,42.805,6.029,13.2975,4.59976,2470.24,2020-11-22T06:12:29Z
2020-11-22T04:14:35Z,42.805,6.029,13.2971,4.59976,2470.273,2020-11-22T06:15:32Z
2020-11-22T04:17:38Z,42.805,6.029,13.2974,4.59978,2470.24,2020-11-22T06:18:35Z
2020-11-22T04:20:41Z,42.805,6.029,13.2973,4.59976,2470.227,2020-11-22T06:21:38Z
2020-11-22T04:23:44Z,42.805,6.029,13.2975,4.59976,2470.25,2020-11-22T06:24:41Z
2020-11-22T04:26:47Z,42.805,6.029,13.2974,4.59976,2470.25,2020-11-22T06:27:44Z
2020-11-22T04:29:50Z,42.805,6.029,13.2974,4.59976,2470.25,2020-11-22T06:30:48Z
2020-11-22T04:32:54Z,42.805,6.029,13.2976,4.59976,2470.227,2020-11-22T06:33:51Z
2020-11-22T04:35:57Z,42.805,6.029,13.2971,4.59977,2470.25,2020-11-22T06:36:54Z
2020-11-22T04:39:00Z,42.805,6.029,13.2973,4.59976,2470.25,2020-11-22T06:39:57Z
2020-11-22T04:42:03Z,42.805,6.029,13.2976,4.59978,2470.25,2020-11-22T06:43:00Z
2020-11-22T04:45:06Z,42.805,6.029,13.2974,4.59976,2470.25,2020-11-22T06:46:03Z
2020-11-22T04:48:09Z,42.805,6.029,13.2973,4.59976,2470.217,2020-11-22T06:49:06Z
2020-11-22T04:51:12Z,42.805,6.029,13.2977,4.59978,2470.25,2020-11-22T06:52:09Z
2020-11-22T04:54:15Z,42.805,6.029,13.2975,4.59976,2470.227,2020-11-22T06:55:13Z
2020-11-22T04:57:19Z,42.805,6.029,13.2976,4.59976,2470.203,2020-11-22T06:58:16Z
2020-11-22T05:00:22Z,42.805,6.029,13.2971,4.59977,2470.273,2020-11-22T07:01:19Z
2020-11-22T05:03:25Z,42.805,6.029,13.2973,4.59978,2470.217,2020-11-22T07:04:22Z
2020-11-22T05:06:28Z,42.805,6.029,13.2973,4.59976,2470.25,2020-11-22T07:07:25Z
2020-11-22T05:09:31Z,42.805,6.029,13.2970,4.59976,2470.24,2020-11-22T07:10:28Z
2020-11-22T05:12:34Z,42.805,6.029,13.2970,4.59977,2470.287,2020-11-22T07:13:31Z
2020-11-22T05:15:37Z,42.805,6.029,13.2972,4.59976,2470.25,2020-11-22T07:16:34Z
2020-11-22T05:18:40Z,42.805,6.029,13.2975,4.59976,2470.25,2020-11-22T07:19:37Z
2020-11-22T05:21:44Z,42.805,6.029,13.2974,4.59976,2470.203,2020-11-22T07:22:41Z
2020-11-22T05:24:47Z,42.805,6.029,13.2974,4.59975,2470.264,2020-11-22T07:25:44Z
2020-11-22T05:27:50Z,42.805,6.029,13.2974,4.59978,2470.264,2020-11-22T07:28:47Z
2020-11-22T05:30:53Z,42.805,6.029,13.2976,4.59976,2470.227,2020-11-22T07:31:50Z
2020-11-22T05:33:56Z,42.805,6.029,13.2974,4.59977,2470.227,2020-11-22T07:34:53Z
2020-11-22T05:36:59Z,42.805,6.029,13.2977,4.59976,2470.25,2020-11-22T07:37:56Z
2020-11-22T05:40:02Z,42.805,6.029,13.2979,4.59976,2470.25,2020-11-22T07:40:59Z
2020-11-22T05:43:05Z,42.805,6.029,13.2974,4.59976,2470.227,2020-11-22T07:44:02Z
2020-11-22T05:46:09Z,42.805,6.029,13.2972,4.59976,2470.264,2020-11-22T07:47:06Z
2020-11-22T05:49:12Z,42.805,6.029,13.2974,4.59976,2470.264,2020-11-22T07:50:09Z
2020-11-22T05:52:15Z,42.805,6.029,13.2974,4.59976,2470.264,2020-11-22T07:53:12Z
2020-11-22T05:55:18Z,42.805,6.029,13.2973,4.59976,2470.24,2020-11-22T07:56:15Z
2020-11-22T05:58:21Z,42.805,6.029,13.2971,4.59976,2470.227,2020-11-22T07:59:18Z
2020-11-22T06:01:24Z,42.805,6.029,13.2972,4.59976,2470.24,2020-11-22T08:02:21Z
2020-11-22T06:04:27Z,42.805,6.029,13.2974,4.59975,2470.25,2020-11-22T08:05:24Z
2020-11-22T06:07:30Z,42.805,6.029,13.2974,4.59976,2470.264,2020-11-22T08:08:27Z
2020-11-22T06:10:33Z,42.805,6.029,13.2974,4.59976,2470.227,2020-11-22T08:11:31Z
2020-11-22T06:13:37Z,42.805,6.029,13.2975,4.59976,2470.217,2020-11-22T08:14:34Z
2020-11-22T06:16:40Z,42.805,6.029,13.2972,4.59976,2470.227,2020-11-22T08:17:37Z
2020-11-22T06:19:43Z,42.805,6.029,13.2974,4.59975,2470.24,2020-11-22T08:20:40Z
2020-11-22T06:22:46Z,42.805,6.029,13.2974,4.59976,2470.227,2020-11-22T08:23:43Z
2020-11-22T06:25:49Z,42.805,6.029,13.2974,4.59976,2470.227,2020-11-22T08:26:46Z
2020-11-22T06:28:52Z,42.805,6.029,13.2973,4.59975,2470.227,2020-11-22T08:29:49Z
2020-11-22T06:31:55Z,42.805,6.029,13.2972,4.59976,2470.227,2020-11-22T08:32:52Z
2020-11-22T06:34:58Z,42.805,6.029,13.2973,4.59976,2470.227,2020-11-22T08:35:56Z
2020-11-22T06:38:02Z,42.805,6.029,13.2976,4.59975,2470.25,2020-11-22T08:38:59Z
2020-11-22T06:41:05Z,42.805,6.029,13.2974,4.59978,2470.287,2020-11-22T08:42:02Z
2020-11-22T06:44:08Z,42.805,6.029,13.2973,4.59976,2470.24,2020-11-22T08:45:05Z
2020-11-22T06:47:11Z,42.805,6.029,13.2974,4.59976,2470.203,2020-11-22T08:48:08Z
2020-11-22T06:50:14Z,42.805,6.029,13.2974,4.59976,2470.24,2020-11-22T08:51:11Z
2020-11-22T06:53:17Z,42.805,6.029,13.2971,4.59976,2470.24,2020-11-22T08:54:14Z
2020-11-22T06:56:20Z,42.805,6.029,13.2975,4.59976,2470.227,2020-11-22T08:57:17Z
2020-11-22T06:59:23Z,42.805,6.029,13.2972,4.59978,2470.25,2020-11-22T09:00:21Z
2020-11-22T07:02:27Z,42.805,6.029,13.2975,4.59976,2470.203,2020-11-22T09:03:24Z
2020-11-22T07:05:30Z,42.805,6.029,13.2971,4.59976,2470.264,2020-11-22T09:06:27Z
2020-11-22T07:08:33Z,42.805,6.029,13.2975,4.59976,2470.203,2020-11-22T09:09:30Z
2020-11-22T07:11:36Z,42.805,6.029,13.2972,4.59976,2470.25,2020-11-22T09:12:33Z
2020-11-22T07:14:39Z,42.805,6.029,13.2977,4.59977,2470.25,2020-11-22T09:15:36Z
2020-11-22T07:17:42Z,42.805,6.029,13.2976,4.59976,2470.236,2020-11-22T09:18:39Z
2020-11-22T07:20:45Z,42.805,6.029,13.2972,4.59977,2470.24,2020-11-22T09:21:42Z
2020-11-22T07:23:48Z,42.805,6.029,13.2973,4.59976,2470.287,2020-11-22T09:24:45Z
2020-11-22T07:26:52Z,42.805,6.029,13.2971,4.59975,2470.26,2020-11-22T09:27:49Z
2020-11-22T07:29:55Z,42.805,6.029,13.2976,4.59980,2470.25,2020-11-22T09:30:52Z
2020-11-22T07:32:58Z,42.805,6.029,13.2971,4.59976,2470.25,2020-11-22T09:33:55Z
2020-11-22T07:36:01Z,42.805,6.029,13.2976,4.59976,2470.227,2020-11-22T09:36:58Z
2020-11-22T07:39:04Z,42.805,6.029,13.2971,4.59977,2470.25,2020-11-22T09:40:01Z
2020-11-22T07:42:07Z,42.805,6.029,13.2971,4.59976,2470.25,2020-11-22T09:43:04Z
2020-11-22T07:45:10Z,42.805,6.029,13.2971,4.59976,2470.227,2020-11-22T09:46:07Z
2020-11-22T07:48:13Z,42.805,6.029,13.2974,4.59978,2470.25,2020-11-22T09:49:10Z
2020-11-22T07:51:16Z,42.805,6.029,13.2972,4.59978,2470.25,2020-11-22T09:52:14Z
2020-11-22T07:54:20Z,42.805,6.029,13.2972,4.59976,2470.287,2020-11-22T09:55:17Z
2020-11-22T07:57:23Z,42.805,6.029,13.2972,4.59977,2470.25,2020-11-22T09:58:20Z
2020-11-22T08:00:26Z,42.805,6.029,13.2975,4.59976,2470.287,2020-11-22T10:01:23Z
2020-11-22T08:03:29Z,42.805,6.029,13.2971,4.59976,2470.264,2020-11-22T10:04:26Z
2020-11-22T08:06:32Z,42.805,6.029,13.2973,4.59976,2470.273,2020-11-22T10:07:29Z
2020-11-22T08:09:35Z,42.805,6.029,13.2974,4.59976,2470.25,2020-11-22T10:10:32Z
2020-11-22T08:12:38Z,42.805,6.029,13.2974,4.59978,2470.227,2020-11-22T10:13:35Z
2020-11-22T08:15:42Z,42.805,6.029,13.2976,4.59975,2470.25,2020-11-22T10:16:39Z
2020-11-22T08:18:45Z,42.805,6.029,13.2971,4.59974,2470.273,2020-11-22T10:19:42Z
2020-11-22T08:21:48Z,42.805,6.029,13.2971,4.59975,2470.273,2020-11-22T10:22:45Z
2020-11-22T08:24:51Z,42.805,6.029,13.2971,4.59976,2470.264,2020-11-22T10:25:48Z
2020-11-22T08:27:54Z,42.805,6.029,13.2971,4.59976,2470.264,2020-11-22T10:28:51Z
2020-11-22T08:30:57Z,42.805,6.029,13.2973,4.59976,2470.25,2020-11-22T10:31:54Z
2020-11-22T08:34:00Z,42.805,6.029,13.2971,4.59976,2470.297,2020-11-22T10:34:57Z
2020-11-22T08:37:03Z,42.805,6.029,13.2974,4.59975,2470.25,2020-11-22T10:38:00Z
2020-11-22T08:40:07Z,42.805,6.029,13.2974,4.59975,2470.264,2020-11-22T10:41:04Z
2020-11-22T08:43:10Z,42.805,6.029,13.2974,4.59976,2470.287,2020-11-22T10:44:07Z
2020-11-22T08:46:13Z,42.805,6.029,13.2974,4.59975,2470.25,2020-11-22T10:47:10Z
2020-11-22T08:49:16Z,42.805,6.029,13.2974,4.59977,2470.273,2020-11-22T10:50:13Z
2020-11-22T08:52:19Z,42.805,6.029,13.2975,4.59976,2470.287,2020-11-22T10:53:16Z
2020-11-22T08:55:22Z,42.805,6.029,13.2974,4.59978,2470.264,2020-11-22T10:56:19Z
2020-11-22T08:58:25Z,42.805,6.029,13.2974,4.59976,2470.264,2020-11-22T10:59:22Z
2020-11-22T09:01:28Z,42.805,6.029,13.2972,4.59976,2470.273,2020-11-22T11:02:26Z
2020-11-22T09:04:32Z,42.805,6.029,13.2972,4.59980,2470.31,2020-11-22T11:05:29Z
2020-11-22T09:07:35Z,42.805,6.029,13.2972,4.59976,2470.31,2020-11-22T11:08:32Z
2020-11-22T09:10:38Z,42.805,6.029,13.2971,4.59977,2470.31,2020-11-22T11:11:35Z
2020-11-22T09:13:41Z,42.805,6.029,13.2974,4.59978,2470.297,2020-11-22T11:14:38Z
2020-11-22T09:16:44Z,42.805,6.029,13.2971,4.59976,2470.297,2020-11-22T11:17:41Z
2020-11-22T09:19:47Z,42.805,6.029,13.2972,4.59976,2470.31,2020-11-22T11:20:44Z
2020-11-22T09:22:50Z,42.805,6.029,13.2976,4.59976,2470.273,2020-11-22T11:23:47Z
2020-11-22T09:25:53Z,42.805,6.029,13.2971,4.59976,2470.31,2020-11-22T11:26:51Z
2020-11-22T09:28:57Z,42.805,6.029,13.2974,4.59976,2470.297,2020-11-22T11:29:54Z
2020-11-22T09:32:00Z,42.805,6.029,13.2972,4.59978,2470.273,2020-11-22T11:32:57Z
2020-11-22T09:35:03Z,42.805,6.029,13.2975,4.59976,2470.31,2020-11-22T11:36:00Z
2020-11-22T09:38:06Z,42.805,6.029,13.2973,4.59978,2470.31,2020-11-22T11:39:03Z
2020-11-22T09:41:09Z,42.805,6.029,13.2975,4.59978,2470.357,2020-11-22T11:42:06Z
2020-11-22T09:44:12Z,42.805,6.029,13.2976,4.59977,2470.32,2020-11-22T11:45:09Z
2020-11-22T09:47:15Z,42.805,6.029,13.2978,4.59978,2470.297,2020-11-22T11:48:12Z
2020-11-22T09:50:18Z,42.805,6.029,13.2975,4.59979,2470.297,2020-11-22T11:51:16Z
2020-11-22T09:53:22Z,42.805,6.029,13.2977,4.59980,2470.297,2020-11-22T11:54:19Z
2020-11-22T09:56:25Z,42.805,6.029,13.2974,4.59977,2470.297,2020-11-22T11:57:22Z
2020-11-22T09:59:28Z,42.805,6.029,13.2974,4.59976,2470.31,2020-11-22T12:00:25Z
2020-11-22T10:02:31Z,42.805,6.029,13.2975,4.59976,2470.334,2020-11-22T12:03:28Z
2020-11-22T10:05:34Z,42.805,6.029,13.2976,4.59977,2470.32,2020-11-22T12:06:31Z
2020-11-22T10:08:37Z,42.805,6.029,13.2971,4.59978,2470.297,2020-11-22T12:09:34Z
2020-11-22T10:11:40Z,42.805,6.029,13.2977,4.59976,2470.343,2020-11-22T12:12:37Z
2020-11-22T10:14:44Z,42.805,6.029,13.2974,4.59977,2470.32,2020-11-22T12:15:41Z
2020-11-22T10:17:47Z,42.805,6.029,13.2976,4.59976,2470.334,2020-11-22T12:18:44Z
2020-11-22T10:20:50Z,42.805,6.029,13.2974,4.59977,2470.32,2020-11-22T12:21:47Z
2020-11-22T10:23:53Z,42.805,6.029,13.2976,4.59979,2470.343,2020-11-22T12:24:50Z
2020-11-22T10:26:56Z,42.805,6.029,13.2973,4.59979,2470.366,2020-11-22T12:27:53Z
2020-11-22T10:29:59Z,42.805,6.029,13.2976,4.59979,2470.357,2020-11-22T12:30:56Z
2020-11-22T10:33:02Z,42.805,6.029,13.2974,4.59980,2470.366,2020-11-22T12:33:59Z
2020-11-22T10:36:05Z,42.805,6.029,13.2975,4.59976,2470.343,2020-11-22T12:37:02Z
2020-11-22T10:39:09Z,42.805,6.029,13.2978,4.59976,2470.32,2020-11-22T12:40:06Z
2020-11-22T10:42:12Z,42.805,6.029,13.2972,4.59978,2470.343,2020-11-22T12:43:09Z
2020-11-22T10:45:15Z,42.805,6.029,13.2974,4.59979,2470.38,2020-11-22T12:46:12Z
2020-11-22T10:48:18Z,42.805,6.029,13.2971,4.59978,2470.357,2020-11-22T12:49:15Z
2020-11-22T10:51:21Z,42.805,6.029,13.2970,4.59981,2470.357,2020-11-22T12:52:18Z
2020-11-22T10:54:24Z,42.805,6.029,13.2975,4.59978,2470.357,2020-11-22T12:55:21Z
2020-11-22T10:57:27Z,42.805,6.029,13.2971,4.59978,2470.38,2020-11-22T12:58:24Z
2020-11-22T11:00:30Z,42.805,6.029,13.2973,4.59979,2470.366,2020-11-22T13:01:28Z
2020-11-22T11:03:34Z,42.805,6.029,13.2971,4.59981,2470.357,2020-11-22T13:04:31Z
2020-11-22T11:06:37Z,42.805,6.029,13.2973,4.59979,2470.343,2020-11-22T13:07:34Z
2020-11-22T11:09:40Z,42.805,6.029,13.2972,4.59979,2470.366,2020-11-22T13:10:37Z
2020-11-22T11:12:43Z,42.805,6.029,13.2973,4.59976,2470.38,2020-11-22T13:13:40Z
2020-11-22T11:15:46Z,42.805,6.029,13.2974,4.59976,2470.366,2020-11-22T13:16:43Z
2020-11-22T11:18:49Z,42.805,6.029,13.2975,4.59978,2470.38,2020-11-22T13:19:46Z
2020-11-22T11:21:52Z,42.805,6.029,13.2974,4.59976,2470.38,2020-11-22T13:22:49Z
2020-11-22T11:24:55Z,42.805,6.029,13.2973,4.59977,2470.357,2020-11-22T13:25:53Z
2020-11-22T11:27:59Z,42.805,6.029,13.2973,4.59979,2470.38,2020-11-22T13:28:56Z
2020-11-22T11:31:02Z,42.805,6.029,13.2971,4.59978,2470.38,2020-11-22T13:31:59Z
2020-11-22T11:34:05Z,42.805,6.029,13.2974,4.59976,2470.376,2020-11-22T13:35:02Z
2020-11-22T11:37:08Z,42.805,6.029,13.2971,4.59976,2470.39,2020-11-22T13:38:05Z
2020-11-22T11:40:11Z,42.805,6.029,13.2976,4.59976,2470.404,2020-11-22T13:41:08Z
2020-11-22T11:43:14Z,42.805,6.029,13.2976,4.59979,2470.38,2020-11-22T13:44:11Z
2020-11-22T11:46:17Z,42.805,6.029,13.2974,4.59977,2470.39,2020-11-22T13:47:14Z
2020-11-22T11:49:20Z,42.805,6.029,13.2972,4.59976,2470.38,2020-11-22T13:50:18Z
2020-11-22T11:52:24Z,42.805,6.029,13.2969,4.59978,2470.413,2020-11-22T13:53:21Z
2020-11-22T11:55:27Z,42.805,6.029,13.2967,4.59977,2470.413,2020-11-22T13:56:24Z
2020-11-22T11:58:30Z,42.805,6.029,13.2974,4.59979,2470.366,2020-11-22T13:59:27Z
2020-11-22T12:01:33Z,42.805,6.029,13.2971,4.59978,2470.366,2020-11-22T14:02:30Z
2020-11-22T12:04:36Z,42.805,6.029,13.2974,4.59979,2470.366,2020-11-22T14:05:33Z
2020-11-22T12:07:39Z,42.805,6.029,13.2974,4.59979,2470.39,2020-11-22T14:08:36Z
2020-11-22T12:10:42Z,42.805,6.029,13.2978,4.59979,2470.343,2020-11-22T14:11:39Z
2020-11-22T12:13:46Z,42.805,6.029,13.2971,4.59980,2470.39,2020-11-22T14:14:43Z
2020-11-22T12:16:49Z,42.805,6.029,13.2977,4.59979,2470.413,2020-11-22T14:17:46Z
2020-11-22T12:19:52Z,42.805,6.029,13.2971,4.59977,2470.404,2020-11-22T14:20:49Z
2020-11-22T12:22:55Z,42.805,6.029,13.2971,4.59977,2470.413,2020-11-22T14:23:52Z
2020-11-22T12:25:58Z,42.805,6.029,13.2971,4.59980,2470.366,2020-11-22T14:26:55Z
2020-11-22T12:29:01Z,42.805,6.029,13.2972,4.59977,2470.427,2020-11-22T14:29:58Z
2020-11-22T12:32:04Z,42.805,6.029,13.2970,4.59980,2470.39,2020-11-22T14:33:01Z
2020-11-22T12:35:07Z,42.805,6.029,13.2975,4.59979,2470.413,2020-11-22T14:36:05Z
2020-11-22T12:38:11Z,42.805,6.029,13.2975,4.59979,2470.404,2020-11-22T14:39:08Z
2020-11-22T12:41:14Z,42.805,6.029,13.2970,4.59978,2470.427,2020-11-22T14:42:11Z
2020-11-22T12:44:17Z,42.805,6.029,13.2972,4.59979,2470.39,2020-11-22T14:45:14Z
2020-11-22T12:47:20Z,42.805,6.029,13.2976,4.59979,2470.413,2020-11-22T14:48:17Z
2020-11-22T12:50:23Z,42.805,6.029,13.2971,4.59980,2470.39,2020-11-22T14:51:20Z
2020-11-22T12:53:26Z,42.805,6.029,13.2971,4.59979,2470.413,2020-11-22T14:54:23Z
2020-11-22T12:56:29Z,42.805,6.029,13.2974,4.59977,2470.413,2020-11-22T14:57:26Z
2020-11-22T12:59:32Z,42.805,6.029,13.2974,4.59979,2470.39,2020-11-22T15:00:29Z
2020-11-22T13:02:36Z,42.805,6.029,13.2973,4.59979,2470.427,2020-11-22T15:03:33Z
2020-11-22T13:05:39Z,42.805,6.029,13.2974,4.59979,2470.413,2020-11-22T15:06:36Z
2020-11-22T13:08:42Z,42.805,6.029,13.2970,4.59979,2470.39,2020-11-22T15:09:39Z
2020-11-22T13:11:45Z,42.805,6.029,13.2969,4.59978,2470.427,2020-11-22T15:12:42Z
2020-11-22T13:14:48Z,42.805,6.029,13.2973,4.59979,2470.427,2020-11-22T15:15:45Z
2020-11-22T13:17:51Z,42.805,6.029,13.2972,4.59979,2470.39,2020-11-22T15:18:48Z
2020-11-22T13:20:54Z,42.805,6.029,13.2976,4.59976,2470.39,2020-11-22T15:21:51Z
2020-11-22T13:23:57Z,42.805,6.029,13.2975,4.59980,2470.39,2020-11-22T15:24:55Z
2020-11-22T13:27:01Z,42.805,6.029,13.2972,4.59979,2470.39,2020-11-22T15:27:58Z
2020-11-22T13:30:04Z,42.805,6.029,13.2974,4.59979,2470.413,2020-11-22T15:31:01Z
2020-11-22T13:33:07Z,42.805,6.029,13.2975,4.59979,2470.39,2020-11-22T15:34:04Z
2020-11-22T13:36:10Z,42.805,6.029,13.2970,4.59979,2470.39,2020-11-22T15:37:07Z
2020-11-22T13:39:13Z,42.805,6.029,13.2971,4.59979,2470.427,2020-11-22T15:40:10Z
2020-11-22T13:42:16Z,42.805,6.029,13.2971,4.59980,2470.39,2020-11-22T15:43:13Z
2020-11-22T13:45:19Z,42.805,6.029,13.2972,4.59979,2470.366,2020-11-22T15:46:16Z
2020-11-22T13:48:22Z,42.805,6.029,13.2973,4.59977,2470.357,2020-11-22T15:49:20Z
2020-11-22T13:51:26Z,42.805,6.029,13.2973,4.59979,2470.343,2020-11-22T15:52:23Z
2020-11-22T13:54:29Z,42.805,6.029,13.2974,4.59978,2470.427,2020-11-22T15:55:26Z
2020-11-22T13:57:32Z,42.805,6.029,13.2971,4.59979,2470.39,2020-11-22T15:58:29Z
2020-11-22T14:00:35Z,42.805,6.029,13.2971,4.59979,2470.366,2020-11-22T16:01:32Z
2020-11-22T14:03:38Z,42.805,6.029,13.2976,4.59979,2470.413,2020-11-22T16:04:35Z
2020-11-22T14:06:41Z,42.805,6.029,13.2974,4.59980,2470.366,2020-11-22T16:07:38Z
2020-11-22T14:09:44Z,42.805,6.029,13.2976,4.59980,2470.366,2020-11-22T16:10:41Z
2020-11-22T14:12:47Z,42.805,6.029,13.2973,4.59979,2470.413,2020-11-22T16:13:45Z
2020-11-22T14:15:51Z,42.805,6.029,13.2976,4.59978,2470.38,2020-11-22T16:16:48Z
2020-11-22T14:18:54Z,42.805,6.029,13.2974,4.59979,2470.404,2020-11-22T16:19:51Z
2020-11-22T14:21:57Z,42.805,6.029,13.2973,4.59979,2470.39,2020-11-22T16:22:54Z
2020-11-22T14:25:00Z,42.805,6.029,13.2971,4.59978,2470.39,2020-11-22T16:25:57Z
2020-11-22T14:28:03Z,42.805,6.029,13.2975,4.59978,2470.404,2020-11-22T16:29:00Z
2020-11-22T14:31:06Z,42.805,6.029,13.2971,4.59979,2470.399,2020-11-22T16:32:03Z
2020-11-22T14:34:09Z,42.805,6.029,13.2970,4.59978,2470.39,2020-11-22T16:35:06Z
2020-11-22T14:37:12Z,42.805,6.029,13.2973,4.59979,2470.427,2020-11-22T16:38:10Z
2020-11-22T14:40:16Z,42.805,6.029,13.2971,4.59978,2470.427,2020-11-22T16:41:13Z
2020-11-22T14:43:19Z,42.805,6.029,13.2973,4.59978,2470.413,2020-11-22T16:44:16Z
2020-11-22T14:46:22Z,42.805,6.029,13.2976,4.59978,2470.427,2020-11-22T16:47:19Z
2020-11-22T14:49:25Z,42.805,6.029,13.2972,4.59979,2470.39,2020-11-22T16:50:22Z
2020-11-22T14:52:28Z,42.805,6.029,13.2972,4.59978,2470.39,2020-11-22T16:53:25Z
2020-11-22T14:55:31Z,42.805,6.029,13.2971,4.59979,2470.427,2020-11-22T16:56:28Z
2020-11-22T14:58:34Z,42.805,6.029,13.2973,4.59980,2470.413,2020-11-22T16:59:31Z
2020-11-22T15:01:37Z,42.805,6.029,13.2976,4.59979,2470.39,2020-11-22T17:02:35Z